#timestamp,LO_Frequency,Hit,StdDev 
1548424815.5,286047001.4,P
1548424835.3,286047003.7,P
1548424855.2,286047004.1,Y
1548424875.0,286047000.2,P
1548424875.9,286047000.2,N
1548424895.8,286047002.4,N
1548424915.6,286047001.0,N
1548424935.4,286047001.1,N
1548424955.3,286046996.9,Y
1548424975.1,286046998.8,P
1548424995.8,286046996.6,N
1548425015.7,286046996.9,N
1548425035.5,286046997.4,N
1548425055.4,286046997.5,N
1548425075.2,286046999.0,N
1548425095.0,286046996.5,N
1548425095.9,286046996.5,N
1548425115.8,286046999.6,N
1548425135.6,286046996.9,N
1548425155.4,286046999.0,N
1548425175.3,286046996.7,N
1548425195.1,286046997.0,N
1548425215.9,286046999.5,N
1548425235.7,286046996.7,N
1548425255.5,286046997.4,N
1548425275.4,286046997.6,N
1548425295.2,286046995.1,Y
1548425315.0,286046999.2,P
1548425315.9,286046999.2,N
1548425335.8,286046999.4,N
1548425355.6,286047001.2,N
1548425375.5,286046998.3,N
1548425395.3,286046998.4,N
1548425415.1,286046998.7,N
1548425435.9,286046998.8,N
1548425455.7,286046998.4,N
1548425475.5,286046998.9,N
1548425495.4,286046996.7,Y
1548425515.2,286047000.8,P
1548425535.1,286047001.2,N
1548425536.0,286047001.2,N
1548425555.8,286046999.3,N
1548425575.6,286046996.6,Y
1548425595.5,286046999.0,P
1548425615.3,286046998.7,N
1548425635.2,286046999.4,N
1548425655.9,286047001.0,N
1548425675.7,286046998.2,N
1548425695.6,286046998.1,N
1548425715.4,286047000.7,N
1548425735.2,286046999.0,N
1548425755.1,286046999.4,N
1548425756.0,286046999.4,N
1548425775.8,286046998.8,N
1548425795.6,286047000.7,N
1548425815.5,286046998.9,N
1548425835.3,286046999.0,N
1548425855.2,286046999.3,N
1548425875.9,286047001.2,N
1548425895.7,286047000.5,N
1548425915.6,286047000.8,N
1548425935.4,286047000.9,N
1548425955.2,286046999.9,N
1548425975.1,286047001.1,N
1548425976.0,286047001.1,N
1548425995.8,286047000.3,N
1548426015.7,286046999.8,N
1548426035.5,286047000.9,N
1548426055.3,286046998.4,N
1548426075.2,286046999.0,N
1548426095.0,286046997.2,N
1548426095.9,286046997.2,N
1548426115.7,286046997.8,N
1548426135.6,286046996.9,N
1548426155.4,286046997.0,N
1548426175.3,286046997.0,N
1548426195.1,286046997.0,N
1548426196.0,286046997.0,N
1548426215.8,286046999.4,N
1548426235.7,286046996.9,N
1548426255.5,286046997.0,N
1548426275.3,286046997.5,N
1548426295.2,286046997.7,N
1548426315.0,286046999.1,N
1548426315.9,286046999.1,N
1548426335.8,286046997.1,N
1548426355.6,286046997.6,N
1548426375.4,286046996.5,N
1548426395.3,286046999.1,N
1548426415.1,286046996.9,N
1548426435.8,286046996.9,N
1548426455.7,286046996.9,N
1548426475.5,286046999.4,N
1548426495.4,286047001.1,N
1548426515.2,286046997.3,N
1548426535.0,286046999.6,N
1548426535.9,286046999.6,N
1548426555.8,286046997.0,N
1548426575.6,286046997.7,N
1548426595.4,286046997.5,N
1548426615.3,286046997.9,N
1548426635.1,286046997.8,N
1548426655.9,286046997.2,N
1548426675.7,286046995.3,Y
1548426695.5,286046999.1,P
1548426715.4,286046999.3,N
1548426735.2,286046999.4,N
1548426755.0,286047000.7,N
1548426756.0,286047000.7,N
1548426775.8,286046998.1,N
1548426795.6,286047000.9,N
1548426815.5,286046998.4,N
1548426835.3,286046999.4,N
1548426855.1,286046998.5,N
1548426875.9,286046998.3,N
1548426895.7,286046998.2,N
1548426915.6,286046998.3,N
1548426935.4,286046998.9,N
1548426955.2,286046999.2,N
1548426975.1,286046998.9,N
1548426976.0,286046998.9,N
1548426995.8,286046999.5,N
1548427015.6,286046996.5,Y
1548427035.5,286046998.9,P
1548427055.3,286046998.1,P
1548427075.2,286046998.3,P
1548427095.9,286046998.3,Y
1548427115.7,286047000.4,P
1548427135.6,286047000.6,N
1548427155.4,286047002.0,N
1548427175.3,286047000.0,N
1548427195.1,286047001.6,N
1548427196.0,286047001.6,N
1548427215.8,286046999.7,N
1548427235.7,286047001.8,N
1548427255.5,286047001.4,N
1548427275.3,286047003.3,Y
1548427295.2,286047004.3,P
1548427315.0,286047002.2,N
1548427315.9,286047002.2,N
1548427335.8,286047001.7,N
1548427355.6,286047003.5,N
1548427375.4,286047003.2,N
1548427395.3,286047003.4,Y
1548427415.1,286047000.4,P
1548427435.9,286046998.5,N
1548427455.7,286046998.9,N
1548427475.5,286046998.4,N
1548427495.4,286046998.3,N
1548427515.2,286046997.2,N
1548427535.0,286046996.9,N
1548427536.0,286046996.9,N
1548427555.8,286046997.8,N
1548427575.6,286046997.8,N
1548427595.5,286046995.4,N
1548427615.3,286046995.1,N
1548427635.1,286046996.0,N
1548427655.9,286046995.6,N
1548427675.7,286046995.1,N
1548427695.6,286046995.8,N
1548427715.4,286046995.9,N
1548427735.2,286046995.1,N
1548427755.1,286046994.9,N
1548427756.0,286046994.9,N
1548427775.8,286046998.0,N
1548427795.6,286046996.1,N
1548427815.5,286046994.5,N
1548427835.3,286046995.2,N
1548427855.2,286046995.8,N
1548427875.9,286046995.4,N
1548427895.7,286046996.4,N
1548427915.6,286046996.4,N
1548427935.4,286046994.0,Y
1548427955.3,286047001.1,P
1548427975.1,286046998.6,N
1548427976.0,286046998.6,N
1548427995.8,286046999.3,N
1548428015.7,286046996.6,N
1548428035.5,286046996.9,N
1548428055.3,286046998.9,N
1548428075.2,286046996.6,N
1548428095.0,286046999.2,N
1548428095.9,286046999.2,N
1548428115.8,286046998.9,N
1548428135.6,286046999.3,N
1548428155.4,286046999.1,N
1548428175.3,286046996.6,N
1548428195.1,286046996.8,N
1548428215.9,286046996.6,N
1548428235.7,286046996.9,N
1548428255.5,286046999.1,N
1548428275.4,286046996.9,N
1548428295.2,286046996.5,N
1548428315.0,286046997.2,N
1548428315.9,286046997.2,N
1548428335.8,286046999.3,N
1548428355.6,286046999.1,N
1548428375.5,286046997.0,N
1548428395.3,286046997.0,N
